Weather History for KEWN - November, 2011

Change the Weather History Date:

Monday, November 14, 2011

  Actual Average Record
Temperature  
Mean Temperature 68 °F 56 °F  
Max Temperature 78 °F 67 °F 81 °F (1985)
Min Temperature 57 °F 44 °F 25 °F (2013)
Degree Days  
Heating Degree Days 0 10  
Month to date heating degree days 133 116  
Since 1 July heating degree days 265 233  
Cooling Degree Days 3 1  
Month to date cooling degree days 3 14  
Year to date cooling degree days 2193 1899  
Growing Degree Days 17 (Base 50)    
Moisture  
Dew Point 56 °F    
Average Humidity 65    
Maximum Humidity 86    
Minimum Humidity 43    
Precipitation  
Precipitation 0.00 in 0.12 in 0.60 in (1970)
Month to date precipitation 0.63 1.54  
Year to date precipitation 37.44 47.49  
Snow  
Snow 0.00 in - - ()
Month to date snowfall 0.0  
Since 1 July snowfall 0.0  
Snow Depth 0.00 in    
Sea Level Pressure  
Sea Level Pressure 30.13 in    
Wind  
Wind Speed 8 mph (SSW)    
Max Wind Speed 18 mph    
Max Gust Speed 26 mph    
Visibility 10 miles    
Events      
T = Trace of Precipitation, MM = Missing Value Source: NWS Daily Summary

Daily Weather History Graph

Daily Weather History Graph

Search for Another Location

Airport or City:

Trip Planner

Search our weather history database for the weather conditions in past years. The results will help you decide how hot, cold, wet, or windy it might be!

Date:

Astronomy

Nov. 14, 2011 Rise Set
Actual Time 6:41 AM EST 5:03 PM EST
Civil Twilight 6:14 AM EST 5:30 PM EST
Nautical Twilight 5:44 AM EST 6:00 PM EST
Astronomical Twilight 5:14 AM EST 6:30 PM EST
Moon 8:10 PM EST (11/14) 9:55 AM EST (11/14)
Length of Visible Light 11h 15m
Length of Day
10h 21m
Waning Gibbous, 87% of the Moon is Illuminated
Nov 14
Waning Gibbous
Nov 18
Last Quarter
Nov 25
New
Dec 2
First Quarter
Dec 10
Full

Hourly Weather History & Observations

Time (EST) Temp. Dew Point Humidity Pressure Visibility Wind Dir Wind Speed Gust Speed Precip Events Conditions
12:54 AM 60.1 °F 55.9 °F 86% 30.19 in 10.0 mi South 5.8 mph - N/A   Partly Cloudy
1:54 AM 61.0 °F 55.0 °F 81% 30.18 in 10.0 mi South 4.6 mph - N/A   Clear
2:54 AM 60.1 °F 55.0 °F 83% 30.18 in 10.0 mi SSW 5.8 mph - N/A   Clear
3:54 AM 60.1 °F 55.0 °F 83% 30.17 in 10.0 mi SSW 5.8 mph - N/A   Partly Cloudy
4:54 AM 60.1 °F 54.0 °F 80% 30.18 in 10.0 mi SSW 3.5 mph - N/A   Clear
5:54 AM 57.9 °F 54.0 °F 87% 30.19 in 10.0 mi SSW 3.5 mph - N/A   Clear
6:54 AM 57.2 °F 53.6 °F 88% 30.19 in 10.0 mi South 4.6 mph - N/A   Clear
7:54 AM 62.1 °F 55.9 °F 80% 30.20 in 10.0 mi SSW 5.8 mph - N/A   Clear
8:54 AM 66.9 °F 55.9 °F 68% 30.19 in 10.0 mi SW 9.2 mph - N/A   Clear
9:54 AM 71.1 °F 57.0 °F 61% 30.20 in 10.0 mi WSW 6.9 mph 16.1 mph N/A   Clear
10:54 AM 73.0 °F 57.0 °F 57% 30.18 in 10.0 mi SW 10.4 mph 20.7 mph N/A   Clear
11:54 AM 75.0 °F 55.9 °F 51% 30.14 in 10.0 mi WSW 15.0 mph 25.3 mph N/A   Clear
12:54 PM 77.0 °F 54.0 °F 45% 30.11 in 10.0 mi West 11.5 mph 18.4 mph N/A   Clear
1:54 PM 77.0 °F 55.4 °F 47% 30.08 in 10.0 mi SSW 10.4 mph - N/A   Clear
2:54 PM 75.9 °F 55.0 °F 48% 30.06 in 10.0 mi SSW 11.5 mph 18.4 mph N/A   Partly Cloudy
3:54 PM 75.0 °F 55.0 °F 50% 30.05 in 10.0 mi South 9.2 mph 17.3 mph N/A   Clear
4:54 PM 71.1 °F 57.0 °F 61% 30.06 in 10.0 mi South 9.2 mph - N/A   Clear
5:54 PM 68.0 °F 57.0 °F 68% 30.07 in 10.0 mi South 8.1 mph - N/A   Clear
6:54 PM 66.0 °F 55.9 °F 70% 30.08 in 10.0 mi South 8.1 mph - N/A   Clear
7:54 PM 64.9 °F 55.9 °F 73% 30.09 in 10.0 mi SSW 8.1 mph - N/A   Clear
8:54 PM 64.0 °F 57.0 °F 78% 30.09 in 10.0 mi SSW 9.2 mph - N/A   Clear
9:54 PM 64.4 °F 57.2 °F 77% 30.08 in 10.0 mi SSW 9.2 mph - N/A   Clear
10:54 PM 63.0 °F 57.0 °F 81% 30.07 in 10.0 mi SSW 8.1 mph - N/A   Clear
11:54 PM 64.0 °F 57.0 °F 78% 30.06 in 10.0 mi SSW 8.1 mph - N/A   Clear